Location: Boćki
(52.6512°N, 23.0459°E)
Time: 07:18:40
(UTC+02:00)

ISS - Visible Passes

Search period start: 27 May 2018 00:00
Search period end: 06 June 2018 00:00
Orbit: 402 x 407 km, 51.6° (Epoch: 27 May)

Date Brightness Start Highest point End Pass type
(mag) Time Alt. Az. Time Alt. Az. Time Alt. Az.
27 May -3.1 00:23:48 10° W 00:26:26 35° SW 00:26:26 35° SW visible
27 May -3.9 21:55:06 10° W 21:58:23 76° S 22:01:40 10° E visible
27 May -3.7 23:31:33 10° W 23:34:45 49° SSW 23:35:44 35° SSE visible
28 May -3.8 22:39:21 10° W 22:42:36 62° SSW 22:45:04 16° ESE visible
29 May -2.1 00:16:03 10° W 00:17:42 20° WSW 00:17:42 20° WSW visible
29 May -3.9 21:47:08 10° W 21:50:24 72° S 21:53:39 10° ESE visible
29 May -3.1 23:23:40 10° W 23:26:39 33° SSW 23:27:06 31° S visible
30 May -3.4 22:31:23 10° W 22:34:31 45° SSW 22:36:31 19° SE visible
31 May -1.4 00:08:42 10° WSW 00:09:09 11° WSW 00:09:09 11° WSW visible
31 May -3.7 21:39:07 10° W 21:42:21 58° SSW 21:45:34 10° ESE visible
31 May -2.3 23:15:55 10° W 23:18:24 20° SSW 23:18:35 20° SSW visible
01 Jun -2.7 22:23:26 10° W 22:26:19 29° SSW 22:28:04 18° SSE visible
02 Jun -3.1 21:31:04 10° W 21:34:11 40° SSW 21:37:17 10° SE visible
02 Jun -1.5 23:08:49 10° WSW 23:10:01 12° SW 23:10:11 12° SW visible
03 Jun -1.9 22:15:42 10° W 22:17:59 18° SW 22:19:41 13° S visible
